Regional Weather Roundup
Issued by NWS

Home | Current Version | Previous Version | Text Only | Print | Product List | Glossary Off
Versions: 1 2 3 4 5 6 7 8 9 10 11 12 13 14 15 16 17 18 19 20 21 22 23 24 25 26 27 28 29 30 31 32 33 34 35 36 37 38 39 40 41 42 43 44 45 46 47 48 49

000
ASUS45 KCYS 231010
RWRWY

WYOMING REGIONAL WEATHER ROUNDUP
NATIONAL WEATHER SERVICE CHEYENNE WY
400 AM MDT TUE SEP 23 2014

NOTE:  "FAIR" INDICATES FEW OR NO CLOUDS BELOW 12,000 FEET
WITH NO SIGNIFICANT WEATHER AND/OR OBSTRUCTIONS TO VISIBILITY.

WYZ001-231100-
YELLOWSTONE NATIONAL PARK

CITY           SKY/WX    TMP DP  RH WIND       PRES   REMARKS
LK YELLOWSTONE   N/A     47  46  97 CALM      30.31R
W YELLOWSTONE  NOT AVBL

$$
WYZ002>013-054>058-071-098>099-231100-
NORTHERN WYOMING

CITY           SKY/WX    TMP DP  RH WIND       PRES   REMARKS
JACKSON        CLOUDY    50  50 100 CALM      30.23F
CODY           CLEAR     63  45  51 W5        30.06R
GREYBULL       CLEAR     55  45  68 SE6       30.00R
WORLAND        CLEAR     49  44  83 S7        30.02R
SHERIDAN       CLEAR     52  45  77 S3        29.96S
BUFFALO        CLEAR     56  42  59 W6        30.02S
GILLETTE       CLOUDY    59  51  75 E3        30.00R
HULETT         LGT RAIN  59  54  82 MISG      29.99
NEWCASTLE      FAIR      55  48  76 N7        29.99

$$
WYZ014>020-022>026-101>103-231100-
CENTRAL WYOMING

CITY           SKY/WX    TMP DP  RH WIND       PRES   REMARKS
BIG PINEY      PTCLDY    39  37  92 SW3       30.26F
PINEDALE       CLOUDY    43  43 100 CALM      30.27S
DUBOIS         PTSUNNY   50  41  71 NW15      30.21R
LANDER         CLEAR     52  38  58 W5        30.10S
RIVERTON       CLEAR     57  42  57 W14       30.10R
CASPER         CLEAR     56  40  55 SW10      30.08R
DOUGLAS        CLEAR     52  42  69 N9        30.05S

$$
WYZ021-027>030-104>119-231100-
SOUTHERN WYOMING

CITY           SKY/WX    TMP DP  RH WIND       PRES   REMARKS
EVANSTON       CLOUDY    53  44  71 SW7       30.27S
KEMMERER       MOSUNNY   43  41  93 N9        30.28R
FORT BRIDGER   CLOUDY    55  47  77 W6        30.29S
ROCK SPRINGS   PTCLDY    48  42  80 SW7       30.24S
DIXON          CLOUDY    52  50  93 E7        30.26F
RAWLINS        CLEAR     51  44  77 SW12      30.21F
SARATOGA       PTSUNNY   46  45  93 CALM      30.24S
LARAMIE        CLEAR     46  41  82 W10       30.21S
CHEYENNE       MOCLDY    57  44  62 W15       30.15S
TORRINGTON     CLEAR     54  48  80 W3        30.00S
PINE BLUFFS    FAIR      55  46  71 W10       30.09S

$$


USA.gov is the U.S. government's official web portal to all federal, state and local government web resources and services.